Regional Weather Roundup
Issued by NWS

Home | Current Version | Previous Version | Text Only | Print | Product List | Glossary Off
Versions: 1 2 3 4 5 6 7 8 9 10 11 12 13 14 15 16 17 18 19 20 21 22 23 24 25 26 27 28 29 30 31 32 33 34 35 36 37 38 39 40 41 42 43 44 45 46 47 48 49 50

387
ASUS45 KSLC 172310
RWRUT

UTAH REGIONAL WEATHER ROUNDUP
NATIONAL WEATHER SERVICE SALT LAKE CITY UT
400 PM MST WED JAN 17 2018

UTZ001>011-023>025-180000-

NORTHERN UTAH

CITY           SKY/WX    TMP DP  RH WIND       PRES   REMARKS
BRIGHAM CITY   PTSUNNY   45  28  51 W3        30.38R
DUGWAY         CLOUDY    46  30  52 NW5       30.35S
HILL AFB       MOSUNNY   45  32  60 N9        30.35S
LOGAN          MOSUNNY   48  27  44 E3        30.36S
OGDEN          MOSUNNY   45  32  60 NW7       30.35R
SALT LAKE CITY PTSUNNY   50  35  56 N10       30.35R
TOOELE VALLEY  PTSUNNY   43  32  65 NW6       30.37R
WENDOVER       CLOUDY    42  29  59 SE3       30.37S
HEBER CITY       N/A     46  25  42 SW5       30.31S
WEST JORDAN    MOSUNNY   48  28  46 CALM      30.36R

$$

UTZ011>015-024>027-180000-

CENTRAL/NORTHEAST UTAH

CITY           SKY/WX    TMP DP  RH WIND       PRES   REMARKS
PROVO AIRPORT  SUNNY     44  27  51 NW7       30.36R
DELTA          SUNNY     46  30  53 CALM      30.35S
PRICE          SUNNY     43  20  39 SW5       30.34R
RICHFIELD      SUNNY     52  28  40 NE6       30.32R
ROOSEVELT      SUNNY     39  10  30 SE3       30.39S
VERNAL         SUNNY     41   9  26 CALM      30.36F

$$

UTZ013>016-019>022-027-180000-

SOUTHERN UTAH

CITY           SKY/WX    TMP DP  RH WIND       PRES   REMARKS
BRYCE CANYON   SUNNY     48  27  44 NW5       30.34S
CEDAR CITY     SUNNY     54  30  40 N7        30.30R
MILFORD        MOSUNNY   52  31  44 N9        30.32R
ST GEORGE      CLEAR     58  31  35 CALM      30.26S
HANKSVILLE     SUNNY     48  16  27 NW3       30.36S
KANAB          SUNNY     59  23  25 E14       30.31S
BLANDING         N/A     48  21  34 SW6       30.37S

$$

REGIONAL REPORTS     COLORADO/ARIZONA

CITY           SKY/WX    TMP DP  RH WIND       PRES   REMARKS
CRAIG, CO      SUNNY     35  10  35 SE3       30.36S
GRAND JUNCTION SUNNY     45  11  25 CALM      30.33F
RIFLE, CO      SUNNY     44   4  19 NW3       30.34F
MONTROSE, CO   SUNNY     42  10  27 CALM      30.35F
CORTEZ, CO     SUNNY     43  20  39 SW9       30.28F
COLORADO CITY    N/A     61  28  29 NW5       30.30S
PAGE, AZ       SUNNY     52  18  26 NE6       30.30F
GRAND CANYON   SUNNY     51  23  33 NE13      30.33R
KINGMAN, AZ    SUNNY     65  31  28 NE10      30.22F
FLAGSTAFF, AZ  SUNNY     48  17  29 NE14      30.31S

$$

REGIONAL REPORTS    NEVADA/IDAHO/WYOMING

CITY           SKY/WX    TMP DP  RH WIND       PRES   REMARKS
LAS VEGAS, NV  PTSUNNY   65  33  30 CALM      30.23R
ELY, NY        PTSUNNY   53  27  36 CALM      30.34R
ELKO, NV       PTSUNNY   45  32  60 CALM      30.32F
POCATELLO, ID  CLOUDY    42  31  64 E7        30.35F
BURLEY, ID     PTSUNNY   44  32  62 N10       30.31F
FORT BRIDGER,    N/A     43  25  49 W12       30.36R
EVANSTON, WY   MOSUNNY   40  27  59 W13       30.34R WCI  32
ROCK SPRINGS,  SUNNY     39  23  52 SW9       30.31S WCI  33

$$




USA.gov is the U.S. government's official web portal to all federal, state and local government web resources and services.